This demonstration page uses our WeatherBlox Daily Observations layout. Learn more.

Left ArrowRight Arrow

39.08367, -84.50855

Hourly Observations for July 18, 2015

Temp ( °F °C ) Dew Point ( °F °C ) Humidity (%) Winds ( mph kmh ) Pressure ( in mb ) Visibility ( mi km ) Precip ( " mm )
12:05 am 00:05 Partly Cloudy with Light Rain 73 22.8 70 21.1 90 90 S 17 28 29.88 1012 10 16 0.00 0.03
12:53 am 00:53 Clear 74 23.3 70 21.1 88 88 W 5 7 29.87 1012 10 16 0.00 0.03
1:53 am 01:53 Clear 73 22.8 70 21.1 90 90 SSW 7 11 29.92 1013 10 16 0.00 0.00
2:53 am 02:53 Clear 73 22.8 69 20.6 87 87 NW 5 7 29.94 1014 10 16 0.00 0.00
3:53 am 03:53 Clear with Mist and Fog 69 20.6 68 20 96 96 Calm 29.94 1014 5 8 0.00 0.00
4:53 am 04:53 Mostly Cloudy with Mist and Fog 69 20.6 69 20.6 100 100 Calm 29.95 1014 6 10 0.00 0.00
5:53 am 05:53 Partly Cloudy with Mist and Fog 69 20.6 69 20.6 100 100 Calm 29.95 1014 5 8 0.00 0.00
6:53 am 06:53 Mostly Sunny 68 20 68 20 100 100 SW 5 7 29.94 1014 10 16 0.00 0.00
7:53 am 07:53 Partly Cloudy 71 21.7 70 21.1 96 96 Calm 29.96 1015 9 14 0.00 0.00
8:53 am 08:53 Mostly Sunny 74 23.3 70 21.1 88 88 S 7 11 29.98 1015 10 16 0.00 0.00
9:53 am 09:53 Sunny 76 24.4 71 21.7 85 85 S 6 9 29.98 1015 10 16 0.00 0.00
10:53 am 10:53 Sunny 82 27.8 75 23.9 79 79 VRB 5 7 29.96 1015 10 16 0.00 0.00
11:53 am 11:53 Sunny 85 29.4 75 23.9 72 72 SW 6 9 29.95 1014 10 16 0.00 0.00
12:53 pm 12:53 Sunny 88 31.1 77 25 70 70 S 8 13 29.94 1014 10 16 0.00 0.00
1:53 pm 13:53 Partly Cloudy 90 32.2 77 25 66 66 SW 9 15 29.96 1014 10 16 0.00 0.00
2:53 pm 14:53 Mostly Cloudy 87 30.6 77 25 72 72 SSW 10 17 29.94 1014 10 16 0.00 0.00
3:53 pm 15:53 Mostly Cloudy 91 32.8 78 25.6 66 66 S 10 17 29.92 1013 10 16 0.00 0.00
4:53 pm 16:53 Mostly Cloudy 91 32.8 77 25 64 64 WSW 12 19 29.92 1013 10 16 0.00 0.00
5:53 pm 17:53 Mostly Cloudy 89 31.7 75 23.9 63 63 SW 10 17 29.90 1013 10 16 0.00 0.00
6:53 pm 18:53 Mostly Cloudy 89 31.7 76 24.4 65 65 SW 7 11 29.89 1012 10 16 0.00 0.00
7:53 pm 19:53 Mostly Sunny 85 29.4 75 23.9 72 72 SSW 6 9 29.88 1012 10 16 0.00 0.00
8:53 pm 20:53 Mostly Cloudy 83 28.3 77 25 82 82 WSW 5 7 29.91 1013 10 16 0.00 0.00
9:14 pm 21:14 Mostly Cloudy with Thunderstorms 82 28 77 25 84 84 WSW 7 11 29.91 1013 10 16 0.00 0.00
9:53 pm 21:53 Partly Cloudy with Thunderstorms 85 29.4 75 23.9 72 72 SW 9 15 29.92 1013 10 16 0.00 0.00
10:05 pm 22:05 Partly Cloudy 84 28.9 75 23.9 74 74 NNW 5 7 29.94 1014 10 16 0.00 0.00
10:32 pm 22:32 Mostly Cloudy with Nearby Thunderstorms 79 26 70 21 74 74 ENE 14 22 29.97 1015 10 16 0.00 0.00
10:53 pm 22:53 Mostly Clear 76 24.4 70 21.1 82 82 VRB 5 7 29.99 1016 10 16 0.00 0.00
11:45 pm 23:45 Mostly Cloudy with Thunderstorms 75 23.9 70 21.1 84 84 Calm 29.97 1015 10 16 0.00 0.03
11:53 pm 23:53 Mostly Cloudy with Thunderstorms 75 23.9 70 21.1 84 84 Calm 29.98 1015 10 16 0.00 0.03

Powered by AerisWeather